ITASAT                  
1 43786U 18099AE  24258.54668042  .00019210  00000+0  13066-2 0  9991
2 43786  97.5024 313.3479 0017667  52.9065 307.3774 15.06239041316014
JY1SAT (JO-97)          
1 43803U 18099AX  24258.11713659  .00030759  00000+0  18801-2 0  9992
2 43803  97.5111 314.9121 0008832   5.4505 354.6819 15.10167442316103
UWE-4                   
1 43880U 18111E   24258.47531546  .00033240  00000+0  18885-2 0  9994
2 43880  97.6012 163.6673 0018321  67.1867 293.1297 15.12686326312911
DUCHIFAT-3              
1 44854U 19089C   24258.29754825  .00058736  00000+0  25677-2 0  9992
2 44854  36.9539 226.3868 0006109 161.2439 198.8535 15.21055354261828
TIANYAN 01              
1 44881U 19093C   24258.51943599  .00004424  00000+0  53377-3 0  9994
2 44881  97.8224 333.5752 0014900  35.4436 324.7766 14.84222090256297
RS-44 & BREEZE-KM R/B   
1 44909U 19096E   24258.47253331  .00000050  00000+0  15596-3 0  9993
2 44909  82.5214  45.4289 0217192 202.2129 156.9454 12.79733955220393
SALSAT                  
1 46495U 20068K   24258.43155431  .00023901  00000+0  12693-2 0  9998
2 46495  97.8247 220.1211 0013684  19.7102 340.4655 15.15235578217816
UVSQ-SAT                
1 47438U 21006AB  24258.12711166  .00297815  00000+0  25399-2 0  9992
2 47438  97.3111 320.7674 0006417 230.4276 129.6419 15.68601802202565
LEDSAT                  
1 49069U 21073D   24258.44553854  .00059670  00000+0  20460-2 0  9990
2 49069  97.4294 329.2074 0016297 329.2147  30.8136 15.29834796170075
XW-3 (CAS-9)            
1 50466U 21131B   24258.56613566  .00002762  00000+0  89176-3 0  9998
2 50466  98.5252 343.2199 0003773 205.6971 154.4030 14.39951659142865
GREENCUBE               
1 53106U 22080B   24254.10475933 -.00000003  00000+0  00000+0 0  9998
2 53106  70.1447 163.0235 0007964  88.1938 271.9634  6.42557210 50721
CAS-5A (FO-118)         
1 54684U 22167C   24258.58936015  .00102518  00000+0  26410-2 0  9994
2 54684  97.6130  46.0565 0009107 197.7713 162.3214 15.38776063 98005
STRATOSAT-TK 1 (RS52S)  
1 57167U 23091B   24258.56275638  .00047748  00000+0  24063-2 0  9990
2 57167  97.6026 311.5859 0015023 168.2221 191.9367 15.16899633 67081
UMKA 1 (RS40S)          
1 57172U 23091G   24258.56124703  .00017978  00000+0  11258-2 0  9996
2 57172  97.6034 309.7532 0016741 172.2611 187.8879 15.09317210 66965
CUBESX-HSE 3 (RS42S)    
1 57178U 23091N   24258.55128259  .00026611  00000+0  15689-2 0  9997
2 57178  97.6073 310.4371 0017308 165.8411 194.3308 15.11417840 66996
MONITOR-4 (RS57S)       
1 57182U 23091S   24258.57128988  .00023310  00000+0  14007-2 0  9999
2 57182  97.6054 310.1892 0017548 167.5702 192.5964 15.10752936 66987
MONITOR-2 (RS39S)       
1 57184U 23091U   24258.59090664  .00014770  00000+0  93009-3 0  9992
2 57184  97.6063 310.1953 0014579 160.3277 199.8517 15.09186411 66987
SVYATOBOR 1 (RS60S)     
1 57187U 23091X   24258.57444293  .00021668  00000+0  12838-2 0  9998
2 57187  97.6062 310.8380 0013910 157.6650 202.5188 15.11329233 67028
VIZARD-METEO (RS38S)    
1 57189U 23091Z   24258.56751484  .00028876  00000+0  16193-2 0  9998
2 57189  97.6057 311.4175 0012907 154.7311 205.4554 15.13258929 67068
NANOZOND 1 (RS49S)      
1 57190U 23091AA  24258.58876617  .00040796  00000+0  20516-2 0  9997
2 57190  97.6026 312.3149 0011193 157.6579 202.5143 15.17059883 67133
POLYTECH-UNIVERSE 3 (R*)
1 57191U 23091AB  24258.59790958  .00015194  00000+0  95518-3 0  9991
2 57191  97.6032 309.8427 0019390 177.7456 182.3863 15.09172423 66977
UTMN 2 (RS27S)          
1 57203U 23091AP  24258.59219248  .00025162  00000+0  14397-2 0  9994
2 57203  97.6054 311.2282 0013369 154.9389 205.2493 15.12561368 67051
ARCCUBE 1 (RS25S)       
1 57205U 23091AR  24258.54957207  .00049605  00000+0  23599-2 0  9997
2 57205  97.5994 312.5383 0011149 158.5185 201.6519 15.18945755 67151
KUZGTU 1 (RS47S)        
1 57217U 23091AV  24258.57004087  .00026079  00000+0  15475-2 0  9996
2 57217  97.6042 310.2687 0017154 167.4994 192.6665 15.11190884 66990
HADES-D (SO-121)        
1 58567U 23174CY  24257.69108110  .00286000  00000+0  52875-2 0  9998
2 58567  97.4416 334.5388 0011133 261.6286  98.3702 15.47939244 47376
OOV-CUBE (TUBSAT-30)    
1 60240U 24128F   24258.47503395  .00008690  00000+0  76435-3 0  9996
2 60240  61.9979 291.4896 0015213 327.1026  32.9114 14.97058459  9974
